Location: Ahausen
(50.4985°N, 8.2722°E)
Time: 19:07:35
(UTC+00:00)

Cosmos 1655 Rocket - Pass Details

Date: 18 September 2020
Orbit: 971 x 1006 km, 82.9° (Epoch: 21 October)

Event Time Altitude Azimuth Distance (km) Brightness Sun altitude
Rises 21:03:49 0° 348° (NNW) 3,685 7.9 -30.4°
Reaches altitude 10° 21:06:20 10° 347° (NNW) 2,737 7.1 -30.7°
Enters shadow 21:12:32 71° 267° (W) 1,040 4.1 -31.3°
